Weather in Baklanovskaya

Russia / Stavropol Krai     45°27′15″N   41°36′36″E
temp.,
°C
wind,
m/s
gust,
m/s
humid.,
%
clouds,
%
prec.,
mm/h
press.,
hPa
HPBL,
m
24 september, fri
fri2400:00+11ene1288100 0.3 1012192
03:00+11nne1293100 2.1 1012162
06:00+11e2394100 4.1 1012223
09:00+12s2286100 4.3 1013347
12:00+14w3474100 0.3 1013825
15:00+17wsw675348 0.6 10121846
18:00+14w35645 0.0 1013102
21:00+12sw357158 0.0 101493
25 september, sat
sat2500:00+11ssw3572100 0.0 101395
03:00+11ssw3874100 0.0 1011246
06:00+11s51079100 0.9 1011346
09:00+11ssw41093100 7.8 1011620
12:00+12sw6886100 6.5 1013444
15:00+15wsw7968100 6.9 10131240
18:00+13w81375100 1.8 1014621
21:00+12wsw5128045 1.9 1017526
26 september, sun
sun2600:00+10wsw511915 0.0 1018371
03:00+9wsw511925 0.0 1019314
06:00+11wsw61287100 0.2 1019442
09:00+14wsw7127699 0.3 10191055
12:00+13wsw7137596 0.1 1019893
15:00+16wsw91665100 0.1 10171244
18:00+16wsw11197011 0.0 10151018
21:00+15wsw11197699 0.3 10151186
27 september, mon
mon2700:00+15w10168499 0.6 1014945
03:00+14wnw6118332 1.4 1015731
06:00+11w48860 0.0 1016300
09:00+13wnw69600 0.0 1017938
12:00+16wnw68470 0.0 10171433
15:00+16wnw68445 0.0 10171694
18:00+14n475494 0.0 1018336
21:00+13n245692 0.0 1019169
28 september, tue
tue2800:00+11n12636 0.0 101913
03:00+10ene22745 0.0 102015
06:00+9e22815 0.0 102120
09:00+13ene33655 0.0 1021470
12:00+17ene445027 0.0 10211589
15:00+18ene444385 0.0 10201923
18:00+15ne48577 0.0 1021277
21:00+13ene38604 0.0 1022154